Location: Miami
(25.7742°N, 80.1936°W)
Time: 01:10:23
(UTC-04:00)

ISS - Pass Details

Date: 02 June 2025
Orbit: 413 x 417 km, 51.6° (Epoch: 16 July)

Event Time Altitude Azimuth Distance (km) Brightness Sun altitude
Rises 20:52:23 0° 302° (WNW) 2,352 2.5 -9.5°
Reaches altitude 10° 20:54:46 10° 287° (WNW) 1,485 0.5 -10.0°
Maximum altitude 20:57:26 22° 234° (SW) 953 -1.7 -10.5°
Drops below altitude 10° 21:00:04 10° 181° (S) 1,476 -1.3 -11.0°
Enters shadow 21:00:53 - 173° (S) 1,755 -1.0 -11.1°
